Weather History for KBTM - June, 2013

Change the Weather History Date:

Monday, June 17, 2013

  Actual Average Record
Temperature  
Mean Temperature 64 °F 56 °F  
Max Temperature 81 °F 71 °F 91 °F (1974)
Min Temperature 46 °F 41 °F 28 °F (1954)
Degree Days  
Heating Degree Days 1 9  
Month to date heating degree days 163 191  
Since 1 June heating degree days 163 191  
Since 1 July heating degree days 8950 9123  
Cooling Degree Days 0 0  
Month to date cooling degree days 0 0  
Year to date cooling degree days 0 0  
Since 1 June cooling degree days 0 0  
Growing Degree Days 12 (Base 50)    
Moisture  
Dew Point 40 °F    
Average Humidity 50    
Maximum Humidity 80    
Minimum Humidity 19    
Precipitation  
Precipitation T in 0.07 in 0.67 in (1938)
Month to date precipitation 1.10 1.46  
Year to date precipitation 4.41 6.37  
Sea Level Pressure  
Sea Level Pressure 29.98 in    
Wind  
Wind Speed 4 mph (East)    
Max Wind Speed 17 mph    
Max Gust Speed 22 mph    
Visibility 10 miles    
Events Thunderstorm    
T = Trace of Precipitation, MM = Missing Value Source: NWS Daily Summary

Daily Weather History Graph

Daily Weather History Graph

Search for Another Location

Airport or City:

Trip Planner

Search our weather history database for the weather conditions in past years. The results will help you decide how hot, cold, wet, or windy it might be!

Date:

Astronomy

Jun. 17, 2013 Rise Set
Actual Time 5:38 AM MDT 9:23 PM MDT
Civil Twilight 5:00 AM MDT 10:01 PM MDT
Nautical Twilight 4:08 AM MDT 10:53 PM MDT
Astronomical Twilight 2:56 AM MDT 12:06 AM MDT
Moon 2:50 PM MDT (6/17) 1:34 AM MDT (6/17)
Length of Visible Light 17h 01m
Length of Day
15h 44m
First Quarter, 61% of the Moon is Illuminated
Jun 17
First Quarter
Jun 23
Full
Jun 29
Last Quarter
Jul 8
New
Jul 15
First Quarter

Hourly Weather History & Observations

Time (MDT) Temp. Dew Point Humidity Pressure Visibility Wind Dir Wind Speed Gust Speed Precip Events Conditions
12:53 AM 54.0 °F 39.9 °F 59% 30.04 in 10.0 mi East 4.6 mph - N/A   Clear
1:53 AM 50.0 °F 39.9 °F 68% 30.04 in 10.0 mi SE 4.6 mph - N/A   Clear
2:53 AM 50.0 °F 39.0 °F 66% 30.04 in 10.0 mi Calm Calm - N/A   Clear
3:53 AM 48.9 °F 39.0 °F 69% 30.03 in 10.0 mi Calm Calm - N/A   Clear
4:53 AM 50.0 °F 39.0 °F 66% 30.03 in 10.0 mi Calm Calm - N/A   Clear
5:53 AM 46.9 °F 39.9 °F 77% 30.04 in 10.0 mi Calm Calm - N/A   Clear
6:53 AM 48.9 °F 42.1 °F 77% 30.04 in 10.0 mi Calm Calm - N/A   Clear
7:53 AM 55.0 °F 42.1 °F 62% 30.04 in 10.0 mi Calm Calm - N/A   Clear
8:53 AM 60.1 °F 43.0 °F 53% 30.03 in 10.0 mi Calm Calm - N/A   Clear
9:53 AM 64.9 °F 44.1 °F 47% 30.01 in 10.0 mi Variable 3.5 mph - N/A   Clear
10:53 AM 70.0 °F 42.1 °F 36% 29.98 in 10.0 mi Calm Calm - N/A   Clear
11:53 AM 72.0 °F 41.0 °F 33% 29.98 in 10.0 mi South 8.1 mph - N/A   Clear
12:53 PM 75.0 °F 39.0 °F 27% 29.95 in 10.0 mi East 8.1 mph - N/A   Clear
1:53 PM 75.0 °F 39.9 °F 28% 29.96 in 10.0 mi SE 11.5 mph 19.6 mph N/A   Clear
2:53 PM 75.9 °F 37.9 °F 25% 29.94 in 10.0 mi SSE 9.2 mph - N/A   Scattered Clouds
3:53 PM 78.1 °F 36.0 °F 22% 29.91 in 10.0 mi SSE 10.4 mph - N/A   Clear
4:53 PM 78.1 °F 34.0 °F 20% 29.88 in 10.0 mi SSE 5.8 mph - N/A   Clear
5:51 PM 77.0 °F 35.6 °F 22% 30.02 in 10.0 mi ESE 11.5 mph - N/A Thunderstorm Thunderstorm
5:53 PM 77.0 °F 36.0 °F 23% 29.88 in 10.0 mi SE 11.5 mph - N/A Thunderstorm Thunderstorm
6:14 PM 75.2 °F 37.4 °F 25% 30.01 in 10.0 mi ESE 15.0 mph 21.9 mph N/A   Scattered Clouds
6:35 PM 73.4 °F 35.6 °F 25% 30.01 in 10.0 mi East 10.4 mph - N/A Thunderstorm Partly Cloudy
6:53 PM 73.9 °F 37.9 °F 27% 29.87 in 10.0 mi East 10.4 mph - N/A   Clear
7:33 PM 73.4 °F 37.4 °F 27% 30.01 in 10.0 mi NW 9.2 mph - N/A   Clear
7:53 PM 73.0 °F 37.0 °F 27% 29.86 in 10.0 mi North 3.5 mph - N/A   Partly Cloudy
8:07 PM 71.6 °F 37.4 °F 29% 30.01 in 10.0 mi North 10.4 mph - N/A Thunderstorm Mostly Cloudy
8:28 PM 69.8 °F 37.4 °F 31% 30.02 in 10.0 mi NW 9.2 mph 19.6 mph N/A Thunderstorm Mostly Cloudy
8:53 PM 66.9 °F 44.1 °F 44% 29.88 in 10.0 mi NNE 6.9 mph - 0.00 in Thunderstorm Scattered Clouds
9:08 PM 66.2 °F 44.6 °F 46% 30.03 in 10.0 mi North 3.5 mph - N/A   Clear
9:53 PM 64.0 °F 45.0 °F 50% 29.87 in 10.0 mi WNW 8.1 mph - N/A   Scattered Clouds
10:05 PM 64.4 °F 42.8 °F 45% 30.02 in 10.0 mi WSW 5.8 mph - N/A Thunderstorm Clear
10:20 PM 62.6 °F 46.4 °F 55% 30.03 in 10.0 mi Calm Calm - N/A   Clear
10:53 PM 62.1 °F 45.0 °F 53% 29.88 in 10.0 mi Calm Calm - N/A   Clear
11:53 PM 60.1 °F 44.1 °F 55% 29.88 in 10.0 mi North 3.5 mph - N/A   Partly Cloudy